[[{"header":{"parameterUnit":"m.s-1","parameterCategory":1,"la1":30.2991,"la2":30.254,"lo1":-89.0895,"lo2":-89.0444,"dy":0.0017,"dx":0.0017,"nx":28,"ny":28,"refTime":"2025-06-15T09:00:00:Z","depth":0,"parameterNumber":2,"parameterNumberName":"U-component_of_WINDS"},"data":[0,0,0,0,0,0,0,0,0,0,0,0,0,0,0,0,0,0,0,0,0,0,0,0,0,0,0,0,0,0,0,0,0,0,0,0,0,0,0,0,0,0,0,0,0,0,0,0,0,0,0,0,0,0,0,0,0,0,3.3706,3.3706,0,3.3772,3.3773,3.3774,3.3737,3.3735,3.3733,3.3731,3.3798,3.3801,3.3805,0,0,0,0,0,0,0,0,0,0,0,0,0,3.3543,3.3546,3.3706,3.3706,3.3707,3.3772,3.3773,3.3774,3.3737,3.3735,3.3732,3.373,3.3797,3.3801,3.3805,0,0,0,0,0,0,0,0,0,0,0,0,0,3.3612,3.3547,3.3705,3.3697,3.3697,3.3772,3.3773,3.3774,3.3737,3.3735,3.3732,3.3729,3.3795,3.38,3.3805,3.3893,0,0,3.3821,3.3824,0,0,0,0,0,0,0,0,3.3608,3.3618,3.3697,3.3697,3.3697,3.3743,3.374,3.3814,3.3738,3.3722,3.3731,3.3728,3.3782,3.3788,3.3806,3.3896,3.3899,3.3822,3.3825,3.3827,3.3829,0,0,0,0,0,0,0,3.3603,3.3615,3.3732,3.3698,3.3699,3.3688,3.3695,3.3754,3.3766,3.3723,3.3721,3.3729,3.3781,3.3801,3.3808,3.3899,3.3822,3.3826,3.383,3.3832,3.4059,3.4062,0,0,0,0,0,0,3.3599,3.3611,3.373,3.3734,3.3645,3.3693,3.3701,3.3731,3.3766,3.3768,3.3731,3.3727,3.3794,3.3802,3.381,3.391,3.3827,3.3832,3.3835,3.4056,3.4059,3.4063,0,0,0,0,0,0,3.3596,3.361,3.3727,3.3672,3.3686,3.3699,3.3734,3.3734,3.3754,3.3772,3.3774,3.375,3.3792,3.3802,3.3871,3.3912,3.3834,3.3839,3.4052,3.4057,3.4061,3.4115,0,0,0,0,0,0,3.3592,3.3609,3.3644,3.3673,3.3689,3.3789,3.3736,3.3737,3.3763,3.3758,3.379,3.3792,3.3791,3.3864,3.3876,3.3918,3.3843,3.4049,3.4054,3.406,3.4109,3.412,3.413,0,0,0,0,0,3.3586,3.3657,3.3646,3.366,3.3732,3.3791,3.38,3.3798,3.3767,3.38,3.3811,3.3791,3.3906,3.3871,3.3885,3.3929,3.4046,3.4053,3.4059,3.4105,3.4118,3.413,0,0,0,0,0,0,3.3633,3.3661,3.3649,3.3731,3.3759,3.3785,3.3827,3.3813,3.385,3.3843,3.3838,3.3845,3.3916,3.393,3.389,3.4013,3.3971,3.3981,3.4001,3.4014,3.4024,3.4018,3.3848,0,0,0,0,0,3.3653,3.3699,3.3721,3.3792,3.3806,3.3814,3.384,3.3835,3.3864,3.3875,3.3891,3.3919,3.3961,3.3989,3.4029,3.4112,3.4116,3.4149,3.4159,3.4167,3.4175,3.4215,3.4229,3.4084,3.4084,3.4084,0,0,3.3694,3.3715,3.3745,3.3801,3.3822,3.3868,3.3825,3.3877,3.391,3.3883,3.3948,3.3961,3.3991,3.4066,3.41,3.408,3.4216,3.4176,3.4182,3.4185,3.4224,3.4237,3.4249,3.4088,3.4088,3.4087,0,0,3.3793,3.3815,3.3874,3.3896,3.3928,3.3932,3.3947,3.3974,3.3981,3.4047,3.4026,3.4066,3.4139,3.416,3.4181,3.4284,3.4266,3.4298,3.435,3.439,3.4402,3.4412,3.4445,3.4457,3.4306,3.4306,3.4306,0,3.384,3.391,3.3907,3.3959,3.3983,3.396,3.4019,3.404,3.4083,3.4099,3.4076,3.4165,3.4185,3.4262,3.4287,3.4306,3.4319,3.4293,3.4401,3.441,3.442,3.4451,3.4464,3.4309,3.4309,3.4309,3.4308,0,3.3964,3.4013,3.4057,3.4098,3.4127,3.4183,3.4186,3.4216,3.4208,3.4215,3.4279,3.4301,3.4343,3.4362,3.4356,3.4438,3.4424,3.4401,3.4359,3.4437,3.4466,3.4479,3.4314,3.4313,3.4312,3.4311,0,0,3.4094,3.4131,3.4147,3.4164,3.4197,3.4233,3.4287,3.4328,3.4351,3.4382,3.4424,3.4485,3.4463,3.4486,3.4482,3.4518,3.4593,3.449,3.449,3.4505,3.4681,3.4695,3.4709,3.4582,3.4585,3.4586,3.4677,0,3.4192,3.4285,3.4282,3.4368,3.441,3.4388,3.4434,3.4458,3.4465,3.4501,3.4509,3.4551,3.4521,3.4534,3.4568,3.4577,3.4628,3.4571,3.4618,3.462,3.4608,3.4726,3.4742,3.4826,3.4689,3.4691,3.4692,0,3.4319,3.4351,3.4441,3.4464,3.4482,3.4523,3.4558,3.4594,3.462,3.4622,3.4647,3.4636,3.4687,3.4645,3.4714,3.4675,3.4694,3.4701,3.4705,3.4706,3.4659,3.4727,3.4853,3.4865,3.4711,3.4709,3.4708,0,3.4399,3.4466,3.4528,3.4543,3.4573,3.4601,3.4615,3.4638,3.4661,3.4692,3.4707,3.4744,3.4763,3.4791,3.4789,3.476,3.4858,3.4817,3.4859,3.4858,3.4878,3.4876,3.5006,3.4897,3.4896,3.4896,3.4896,0,3.4506,3.4561,3.4563,3.4601,3.466,3.4656,3.4715,3.4726,3.4746,3.4783,3.4768,3.4803,3.48,3.4835,3.4835,3.4889,3.4899,3.4901,3.4899,3.49,3.4899,3.4911,3.4903,3.4899,3.4899,3.4898,3.4897,0,3.4606,3.461,3.4675,3.4696,3.4703,3.4746,3.4764,3.4798,3.4803,3.485,3.4861,3.4869,3.4909,3.4911,3.4958,3.4957,3.5023,3.5017,3.5014,3.5011,3.5052,3.5046,3.519,3.5207,3.509,3.5091,3.5092,0,3.4672,3.4714,3.4739,3.4763,3.4778,3.4817,3.484,3.4838,3.4862,3.4893,3.4923,3.4961,3.4992,3.5057,3.5065,3.51,3.5092,3.514,3.5097,3.5096,3.5089,3.5085,3.5087,3.5148,3.5149,3.515,3.5151,0,3.4789,3.4788,3.4823,3.4858,3.4886,3.4913,3.4939,3.4959,3.4958,3.4987,3.5027,3.5051,3.5097,3.5135,3.5168,3.518,3.5164,3.5165,3.5176,3.5175,3.5171,3.517,3.5033,3.5161,3.516,3.5159,3.5159,3.5158,3.4871,3.4905,3.4928,3.4966,3.4984,3.5008,3.504,3.5048,3.5082,3.5119,3.5116,3.516,3.5181,3.5224,3.5239,3.5272,3.5255,3.5272,3.5276,3.5279,3.5281,3.5168,3.5279,3.5279,3.5278,3.5278,3.5278,0,3.4984,3.4996,3.5032,3.5067,3.5096,3.508,3.5106,3.5131,3.517,3.5192,3.5222,3.5266,3.5302,3.5313,3.5347,3.5371,3.5364,3.538,3.5376,3.5378,3.5297,3.5282,3.5384,3.5384,3.5384,3.5384,3.5384,3.5384,3.5045,3.51,3.5102,3.5166,3.5178,3.5221,3.5237,3.5257,3.5274,3.5324,3.5354,3.5361,3.5377,3.5412,3.5443,3.5445,3.5457,3.5474,3.5473,3.5396,3.5385,3.5374,3.536,3.5477,3.5478,3.5551,3.5552,3.5553]},{"header":{"parameterUnit":"m.s-1","parameterCategory":1,"la1":30.2991,"la2":30.254,"lo1":-89.0895,"lo2":-89.0444,"dy":0.0017,"dx":0.0017,"nx":28,"ny":28,"refTime":"2025-06-15T09:00:00:Z","depth":0,"parameterNumber":3,"parameterNumberName":"V-component_of_WINDS"},"data":[0,0,0,0,0,0,0,0,0,0,0,0,0,0,0,0,0,0,0,0,0,0,0,0,0,0,0,0,0,0,0,0,0,0,0,0,0,0,0,0,0,0,0,0,0,0,0,0,0,0,0,0,0,0,0,0,0,0,3.2105,3.2106,0,3.2243,3.2245,3.2246,3.2227,3.2224,3.2222,3.222,3.2362,3.2367,3.2373,0,0,0,0,0,0,0,0,0,0,0,0,0,3.1822,3.1827,3.2105,3.2106,3.2108,3.2243,3.2245,3.2247,3.2227,3.2224,3.2222,3.2219,3.236,3.2367,3.2374,0,0,0,0,0,0,0,0,0,0,0,0,0,3.1951,3.1829,3.2104,3.2115,3.2117,3.2242,3.2245,3.2247,3.2228,3.2224,3.2221,3.2218,3.2357,3.2366,3.2375,3.2499,0,0,3.2402,3.2406,0,0,0,0,0,0,0,0,3.1944,3.1961,3.2111,3.2114,3.2117,3.2214,3.2197,3.2332,3.2229,3.2186,3.222,3.2216,3.2315,3.2327,3.2361,3.2505,3.2511,3.2403,3.2408,3.2412,3.2414,0,0,0,0,0,0,0,3.1935,3.1955,3.2159,3.2114,3.2117,3.2112,3.2126,3.2222,3.2268,3.2189,3.2188,3.2205,3.2316,3.2352,3.2364,3.2514,3.2402,3.241,3.2416,3.2419,3.2764,3.2768,0,0,0,0,0,0,3.1923,3.1948,3.2155,3.2164,3.202,3.212,3.2136,3.2186,3.2267,3.2276,3.2208,3.2203,3.2339,3.2354,3.2369,3.2518,3.2412,3.242,3.2425,3.276,3.2765,3.2769,0,0,0,0,0,0,3.1917,3.1942,3.2149,3.2056,3.2082,3.2128,3.2185,3.2191,3.2227,3.2281,3.2289,3.2236,3.2337,3.2357,3.2466,3.2523,3.2424,3.2432,3.2756,3.2762,3.2767,3.2819,0,0,0,0,0,0,3.1909,3.194,3.1988,3.2057,3.2087,3.2245,3.2189,3.2196,3.2243,3.2238,3.231,3.2319,3.2336,3.2453,3.2475,3.2533,3.2439,3.2751,3.2759,3.2765,3.2812,3.2825,3.2837,0,0,0,0,0,3.1899,3.1998,3.1991,3.2016,3.2148,3.2248,3.2265,3.2283,3.2247,3.2296,3.233,3.2316,3.2513,3.2464,3.2489,3.2551,3.2748,3.2756,3.2765,3.2807,3.2823,3.2837,0,0,0,0,0,0,3.1935,3.2007,3.2,3.2124,3.218,3.2245,3.2307,3.23,3.2368,3.2361,3.238,3.2396,3.2507,3.254,3.2484,3.2674,3.2625,3.2639,3.2649,3.2665,3.2677,3.2666,3.2446,0,0,0,0,0,3.1957,3.2033,3.2091,3.2195,3.2223,3.226,3.2304,3.2313,3.2372,3.2396,3.2438,3.2496,3.257,3.2619,3.2691,3.2816,3.2831,3.2871,3.2883,3.2893,3.2905,3.2972,3.299,3.2798,3.2798,3.2797,0,0,3.2004,3.2052,3.2099,3.2203,3.2248,3.2325,3.228,3.2365,3.2422,3.2409,3.2515,3.2547,3.2613,3.273,3.2784,3.2761,3.2961,3.2904,3.2912,3.2919,3.2983,3.3001,3.3017,3.2804,3.2802,3.2802,0,0,3.2128,3.2173,3.2263,3.2309,3.2376,3.24,3.2421,3.2487,3.2508,3.2615,3.2606,3.2674,3.2803,3.2849,3.289,3.3029,3.3019,3.3052,3.3117,3.3182,3.3197,3.3211,3.326,3.3277,3.3064,3.3064,3.3064,0,3.2178,3.2294,3.231,3.2395,3.2441,3.2431,3.2522,3.2565,3.2653,3.2684,3.2657,3.2817,3.2861,3.2988,3.3022,3.3056,3.308,3.3044,3.3194,3.3208,3.322,3.3267,3.3286,3.3067,3.3067,3.3066,3.3066,0,3.2351,3.2432,3.2497,3.2581,3.2634,3.2721,3.275,3.2801,3.2804,3.283,3.2937,3.2989,3.307,3.3101,3.3105,3.3229,3.3212,3.3189,3.3141,3.3242,3.3286,3.3304,3.3072,3.3071,3.307,3.3069,0,0,3.2504,3.2594,3.2618,3.2655,3.2728,3.2791,3.2877,3.2956,3.2999,3.3059,3.3131,3.3239,3.3218,3.3264,3.3273,3.3331,3.3436,3.33,3.3302,3.3323,3.3574,3.359,3.3611,3.343,3.3433,3.3436,3.3568,0,3.2635,3.2787,3.2803,3.2939,3.3013,3.3005,3.3079,3.3132,3.3158,3.3224,3.3253,3.3329,3.3295,3.3323,3.3379,3.3412,3.3487,3.3402,3.3496,3.3499,3.348,3.3634,3.3653,3.3775,3.3586,3.3589,3.3591,0,3.2808,3.2873,3.3016,3.3077,3.3109,3.3176,3.3249,3.3312,3.3371,3.3386,3.3436,3.3437,3.3525,3.3473,3.3593,3.3535,3.3574,3.3596,3.3601,3.3611,3.3551,3.3647,3.3815,3.3833,3.3618,3.3616,3.3614,0,3.2904,3.3027,3.3128,3.316,3.3234,3.3281,3.3314,3.337,3.3416,3.3479,3.3509,3.3581,3.3621,3.3677,3.3698,3.3658,3.3817,3.3766,3.3831,3.383,3.3865,3.3863,3.404,3.3891,3.389,3.389,3.389,0,3.3048,3.3136,3.3171,3.3234,3.3331,3.3348,3.3444,3.3475,3.3524,3.3591,3.3588,3.3651,3.3674,3.3741,3.3757,3.3854,3.3872,3.3886,3.3889,3.3886,3.3884,3.3912,3.3904,3.3895,3.3894,3.3893,3.3892,0,3.3172,3.3199,3.3309,3.3369,3.3386,3.3456,3.3507,3.3567,3.3591,3.3676,3.3697,3.3736,3.3814,3.3839,3.3934,3.3945,3.4057,3.4053,3.4038,3.4038,3.4101,3.4094,3.4303,3.433,3.4163,3.4164,3.4166,0,3.3262,3.3329,3.3397,3.3441,3.3476,3.3549,3.3595,3.3613,3.3662,3.3733,3.3783,3.3861,3.3924,3.4049,3.4085,3.4157,3.4154,3.4222,3.4165,3.4159,3.4154,3.415,3.4156,3.4233,3.4235,3.4236,3.4237,0,3.3419,3.3429,3.3496,3.3568,3.3623,3.368,3.3736,3.3772,3.3799,3.3853,3.3933,3.3981,3.4077,3.4154,3.4227,3.426,3.4253,3.4255,3.4273,3.4271,3.4259,3.4265,3.4066,3.425,3.4249,3.4248,3.4247,3.4247,3.3529,3.3587,3.3643,3.3718,3.3761,3.3812,3.3871,3.3902,3.3969,3.4048,3.4055,3.414,3.4196,3.4293,3.4329,3.4396,3.4377,3.4404,3.4411,3.4417,3.4422,3.4248,3.4409,3.4409,3.4409,3.4409,3.4408,0,3.3685,3.372,3.3788,3.3865,3.3923,3.3911,3.3971,3.402,3.4096,3.4148,3.4209,3.43,3.4374,3.4415,3.4488,3.4533,3.4532,3.4552,3.4549,3.4556,3.4435,3.4411,3.4552,3.4552,3.4552,3.4552,3.4552,3.4552,3.3773,3.3871,3.3887,3.4006,3.4041,3.4124,3.416,3.4206,3.4248,3.4349,3.441,3.4436,3.4484,3.456,3.4626,3.4636,3.4663,3.4685,3.4693,3.458,3.4565,3.4551,3.4529,3.4691,3.4691,3.4809,3.481,3.4811]}]]